Location: Biltmore Gardens
(41.6070°N, 83.4666°W)
Time: 02:26:20
(UTC+00:00)

Vanguard 2 Rocket - All Passes

Search period start: 21 April 2021 00:00
Search period end: 01 May 2021 00:00
Orbit: 553 x 3326 km, 32.9° (Epoch: 20 April)

Date Brightness Start Highest point End Pass type
(mag) Time Alt. Az. Time Alt. Az. Time Alt. Az.
21 Apr - 01:35:19 10° W 01:47:32 24° SW 01:56:24 10° S visible
21 Apr - 15:32:43 10° S 15:42:34 20° SE 15:54:28 10° E daylight
21 Apr - 17:41:23 10° SW 17:57:03 47° SSE 18:15:37 10° E daylight
21 Apr - 19:55:18 10° WSW 20:14:18 65° S 20:32:35 10° E daylight
21 Apr - 22:12:14 10° W 22:31:59 60° SSW 22:47:09 10° ESE daylight
22 Apr - 00:31:32 10° W 00:47:21 35° SW 00:58:31 10° SSE visible
22 Apr - 14:38:28 10° SE 14:42:30 11° SE 14:46:54 10° ESE daylight
22 Apr - 16:42:09 10° SSW 16:55:45 38° SE 17:13:05 10° E daylight
22 Apr - 18:54:29 10° WSW 19:12:04 61° SSE 19:31:17 10° E daylight
22 Apr - 21:10:16 10° W 21:30:00 64° S 21:46:58 10° ESE daylight
22 Apr - 23:28:28 10° W 23:46:35 45° SSW 23:59:48 10° SE daylight
23 Apr - 01:50:57 10° W 01:59:59 17° SW 02:07:16 10° SSW visible
23 Apr - 15:43:45 10° S 15:55:03 28° SE 16:09:45 10° E daylight
23 Apr - 17:54:17 10° SW 18:10:07 55° SSE 18:29:27 10° E daylight
23 Apr - 20:08:49 10° WSW 20:27:45 66° S 20:46:14 10° ESE daylight
23 Apr - 22:25:57 10° W 22:45:14 53° SSW 23:00:23 10° SE daylight
24 Apr - 00:46:02 10° W 00:59:58 26° SW 01:10:31 10° S visible
24 Apr - 14:46:37 10° SSE 14:54:51 19° SE 15:05:12 10° E daylight
24 Apr - 16:54:43 10° SW 17:08:37 46° SSE 17:27:05 10° E daylight
24 Apr - 19:07:54 10° WSW 19:25:28 65° S 19:44:57 10° E daylight
24 Apr - 21:23:57 10° W 21:43:23 60° SSW 22:00:22 10° ESE daylight
24 Apr - 23:42:30 10° W 23:59:24 36° SW 00:12:20 10° SSE daylight
25 Apr - 15:55:49 10° SSW 16:07:41 37° SE 16:24:10 10° E daylight
25 Apr - 18:07:32 10° WSW 18:23:22 61° SSE 18:43:10 10° E daylight
25 Apr - 20:22:27 10° W 20:41:12 64° S 20:59:45 10° ESE daylight
25 Apr - 22:39:47 10° W 22:58:16 46° SSW 23:13:17 10° SE daylight
26 Apr - 01:01:33 10° W 01:12:26 19° SW 01:21:22 10° SSW visible
26 Apr - 14:57:44 10° S 15:07:20 26° SE 15:20:33 10° E daylight
26 Apr - 17:07:44 10° SW 17:21:41 54° SSE 17:40:53 10° E daylight
26 Apr - 19:21:29 10° WSW 19:38:55 66° S 19:58:33 10° ESE daylight
26 Apr - 21:37:42 10° W 21:56:37 54° SSW 22:13:30 10° SE daylight
26 Apr - 23:57:01 10° W 00:12:01 28° SW 00:24:11 10° S daylight
27 Apr - 14:01:02 10° SSE 14:07:31 16° SE 14:15:42 10° E daylight
27 Apr - 16:08:30 10° SW 16:20:33 45° SSE 16:38:09 10° E daylight
27 Apr - 18:21:01 10° WSW 18:36:46 64° S 18:56:47 10° E daylight
27 Apr - 20:36:10 10° W 20:54:35 60° SSW 21:13:04 10° ESE daylight
27 Apr - 22:53:52 10° W 23:11:06 37° SW 23:25:41 10° SSE daylight
28 Apr - 01:20:17 10° WSW 01:24:47 11° SW 01:28:58 10° SW visible
28 Apr - 15:09:53 10° SSW 15:20:01 34° SE 15:34:59 10° E daylight
28 Apr - 17:21:04 10° WSW 17:34:58 60° SSE 17:54:33 10° E daylight
28 Apr - 19:35:10 10° W 19:52:24 64° S 20:12:00 10° ESE daylight
28 Apr - 21:51:35 10° W 22:09:41 46° SSW 22:26:16 10° SE daylight
29 Apr - 00:12:30 10° W 00:24:30 20° SW 00:34:55 10° S daylight
29 Apr - 14:12:06 10° S 14:20:03 24° SE 14:31:14 10° E daylight
29 Apr - 16:21:36 10° SW 16:33:39 52° SSE 16:51:54 10° E daylight
29 Apr - 18:34:40 10° WSW 18:50:16 65° S 19:10:19 10° ESE daylight
29 Apr - 20:49:58 10° W 21:07:52 53° SSW 21:26:05 10° SE daylight
29 Apr - 23:08:25 10° W 23:23:47 29° SW 23:37:22 10° S daylight
30 Apr - 13:16:00 10° SSE 13:20:34 14° SE 13:26:06 10° ESE daylight
30 Apr - 15:22:40 10° SW 15:32:55 43° SSE 15:48:57 10° E daylight
30 Apr - 17:34:37 10° WSW 17:48:24 63° S 18:08:08 10° E daylight
30 Apr - 19:48:57 10° W 20:05:49 59° SSW 20:25:13 10° ESE daylight
30 Apr - 22:05:44 10° W 22:22:35 37° SW 22:38:30 10° SSE daylight
